1.71 0.79
as at 1 April 2015


Welshpool Mid Wales Airport lies in the beautiful Severn valley and is on the edge of some of the most stunning open flying country anywhere in the UK.

runway04dusk

Developed from the 1990s onwards, the airport is now a home for numerous business and light aircraft. It is also the base for the Mid Wales Air Ambulance. Here you can get lessons and gain a licence flying helicopters, fixed wing aircraft and microlights. You could also just come along and watch the comings and goings of a busy general aviation hub.

Royal Danish Air Force

We recently had a visit from the Royal Danish Air Force. Thankfully this time it wasn't a viking invasion and this friendly bunch replaced their longboats for a pair of SAAB T-17s.

Velkommen!
IMG 7975

2178-8006-T-404

More in this category: « May visitors
Partly Cloudy

17°C

Welshpool

Partly Cloudy

Wind: 25.75 km/h

SHAWBURY
METAR: EGOS 281225Z 25014KT 9999 SCT035 17/10 Q1014 BLU TEMPO 6000 SHRA WHT =
TAF: TAF EGOS 281033Z 2812/2817 23012G22KT 9999 SCT030 PROB30 TEMPO 2812/2816 6000 SHRA SCT024TCU =
SR / SS: 05:17 / 19:10 UTC
Here is the collection of friv yepi. . Gun games play online free gun games. . http://www.hunts-international.com